Hourly Data Report for May 13, 2012

All times are specified in Local Standard Time (LST). Add 1 hour to adjust for Daylight Saving Time where and when it is observed.

DEER LAKE A
NEWFOUNDLAND

49°12'33.000" N
57°23'40.000" W
21.90 m
8401502
71809
YDF

Download Data

Hourly Data (May 2012)
Hourly Data Report for May 13, 2012
Temp Definition
°C
Dew Point Temp Definition
°C
Rel Hum Definition
%
Wind Dir Definition
10's deg

Wind Spd Definition
km/h
Visibility Definition
km
Stn Press Definition
kPa
Hmdx Definition


Wind Chill Definition


Weather Definition


TIME
00:30 Legend Double Dagger 5.4 4.5 94 23 5 10.0 101.80     LegendNANA
01:30 Legend Double Dagger 5.1 4.2 94 22 8 10.0 101.79     LegendNANA
02:30 Legend Double Dagger 4.4 4.0 97   0 10.0 101.78     Mainly Clear
03:30 Legend Double Dagger 2.6 2.5 99   0 10.0 101.78     LegendNANA
04:30 Legend Double Dagger 1.0 0.7 98   0 10.0 101.82     Fog
05:30 Legend Double Dagger 2.4 2.3 99 19 4 0.8 101.84     Fog
06:30 Legend Double Dagger 4.1 4.0 99   0 1.2 101.82     Fog
07:30 Legend Double Dagger 5.6 5.2 97 23 5 10.0 101.85     LegendNANA
08:30 Legend Double Dagger 9.9 6.8 81 2 8 10.0 101.81     Mainly Clear
09:30 Legend Double Dagger 12.1 8.0 76 3 12 10.0 101.78     LegendNANA
10:30 Legend Double Dagger 13.7 7.7 67 6 8 10.0 101.71     LegendNANA
11:30 Legend Double Dagger 15.8 5.2 49 33 8 10.0 101.65     Mostly Cloudy
12:30 Legend Double Dagger 13.1 5.3 59 30 9 10.0 101.64     LegendNANA
13:30 Legend Double Dagger 13.6 4.5 54 3 9 10.0 101.64     LegendNANA
14:30 Legend Double Dagger 15.4 6.2 54 30 8 10.0 101.64     Mostly Cloudy
15:30 Legend Double Dagger 16.0 6.0 51 29 12 10.0 101.65     LegendNANA
16:30 Legend Double Dagger 14.0 5.7 57 31 6 10.0 101.67     LegendNANA
17:30 Legend Double Dagger 12.1 5.8 65 22 11 10.0 101.76     Mostly Cloudy
18:30 Legend Double Dagger 10.8 5.0 67 23 19 10.0 101.79     LegendNANA
19:30 Legend Double Dagger 7.1 3.7 79 24 16 10.0 101.90     LegendNANA
20:30 Legend Double Dagger 5.2 3.2 87 23 15 10.0 101.97     Mainly Clear
21:30 Legend Double Dagger 5.1 3.3 88 24 19 10.0 102.03     LegendNANA
22:30 Legend Double Dagger 4.7 3.1 89 23 15 10.0 102.07     LegendNANA
23:30 Legend Double Dagger 4.6 2.8 88 23 15 10.0 102.10     Mostly Cloudy

Notes on Data Quality.

Legend

  • E = Estimated
  • M = Missing
  • NA = Not Available
  • ‡ = Partner data that is not subject to review by the National Climate Archives
Date modified: